User: anonymous
Location: Ottawa
(45.4170°N, 75.7000°W)
Time: 20:21:26
(UTC-04:00)
Language:

Aureole 3 Rocket - Orbit

View from above orbital plane
View from above orbital plane
View from above satellite
View from above satellite

Ground track
Ground track

The orbit data is extracted from the following two-line orbital elements,

1 12849U 81094B   14273.36308673  .00001413  00000-0  13167-3 0    57
2 12849 082.4959 206.2846 0911048 196.4085 160.5683 13.48300447608284
Epoch (UTC): 30 September 2014 08:42:50
Eccentricity: 0.0911048
inclination: 82.4959°
perigee height: 399 km
apogee height: 1758 km
right ascension of ascending node: 206.2846°
argument of perigee: 196.4085°
revolutions per day: 13.48300447
mean anomaly at epoch: 160.5683°
orbit number at epoch: 60828

The dashed part of the orbit path shows where the satellite is in the earth's shadow,  

DLR